#timestamp,LO_Frequency,Hit,StdDev 
1525514415.3,286046998.5,P
1525514435.2,286046999.4,N
1525514455.0,286046999.4,N
1525514455.9,286046999.4,N
1525514475.8,286046998.1,Y
1525514495.6,286047002.4,P
1525514515.4,286047000.6,N
1525514535.3,286046998.3,N
1525514555.1,286046998.5,N
1525514575.8,286046996.7,N
1525514595.7,286046998.6,N
1525514615.5,286047001.0,N
1525514635.4,286047000.4,N
1525514655.2,286046998.5,N
1525514675.0,286047000.5,N
1525514675.9,286047000.5,N
1525514695.8,286047002.7,N
1525514715.6,286047000.9,N
1525514735.5,286047002.7,N
1525514755.3,286047000.9,N
1525514775.1,286047002.8,N
1525514795.9,286047000.2,N
1525514815.7,286046999.9,N
1525514835.5,286046999.8,N
1525514855.4,286047002.5,N
1525514875.2,286047002.0,N
1525514895.0,286046999.8,N
1525514896.0,286046999.8,N
1525514915.8,286047000.9,N
1525514935.6,286047000.0,N
1525514955.5,286047002.1,N
1525514975.3,286046998.1,N
1525514995.1,286046996.5,N
1525515015.9,286046997.2,N
1525515035.7,286046999.4,N
1525515055.6,286047000.8,N
1525515075.4,286046999.7,N
1525515095.2,286047002.8,N
1525515115.1,286046998.1,N
1525515116.0,286046998.1,N
1525515135.8,286046999.0,N
1525515155.6,286047000.2,N
1525515175.5,286046998.1,N
1525515195.3,286046999.7,N
1525515215.2,286047002.8,N
1525515235.9,286047002.8,N
1525515255.7,286047002.0,N
1525515275.6,286047000.2,N
1525515295.4,286047002.7,N
1525515315.2,286047002.3,N
1525515335.1,286047000.0,N
1525515336.0,286047000.0,N
1525515355.8,286046999.8,N
1525515375.7,286046999.8,N
1525515395.5,286047000.4,N
1525515415.3,286046999.7,N
1525515435.2,286047000.4,N
1525515455.0,286047002.7,N
1525515455.9,286047002.7,N
1525515475.8,286047002.5,N
1525515495.6,286047001.7,N
1525515515.4,286047000.1,N
1525515535.3,286047000.8,N
1525515555.1,286047001.1,N
1525515575.8,286047000.0,N
1525515595.7,286046999.9,N
1525515615.5,286047002.3,N
1525515635.4,286047001.0,N
1525515655.2,286047000.0,N
1525515675.0,286046999.8,N
1525515675.9,286046999.8,N
1525515695.8,286047002.3,N
1525515715.6,286047002.4,N
1525515735.4,286047002.7,N
1525515755.3,286047002.4,N
1525515775.1,286047011.9,Y
1525515795.9,286047001.2,P
1525515815.7,286046999.1,P
1525515835.5,286046997.1,N
1525515855.4,286046999.4,N
1525515875.2,286046998.5,N
1525515895.0,286046998.7,N
1525515895.9,286046998.7,N
1525515915.8,286046999.3,N
1525515935.6,286046999.4,N
1525515955.5,286046999.2,N
1525515975.3,286046999.2,N
1525515995.1,286046999.0,N
1525516015.9,286047001.0,N
1525516035.7,286047012.0,Y
1525516055.5,286047013.0,P
1525516075.4,286047009.8,N
1525516095.2,286047007.1,N
1525516115.1,286047003.8,N
1525516116.0,286047003.8,N
1525516135.8,286047002.3,N
1525516155.6,286047001.1,N
1525516175.5,286047001.2,N
1525516195.3,286046998.5,N
1525516215.1,286046996.7,N
1525516235.9,286046997.1,N
1525516255.7,286047001.2,N
1525516275.6,286046998.7,N
1525516295.4,286046999.0,N
1525516315.2,286046997.8,N
1525516335.1,286046998.0,N
1525516336.0,286046998.0,N
1525516355.8,286046995.3,N
1525516375.6,286046995.0,N
1525516395.5,286046997.1,N
1525516415.3,286046995.1,N
1525516435.2,286046997.7,N
1525516455.9,286046997.1,N
1525516475.7,286046998.3,N
1525516495.6,286046997.4,N
1525516515.4,286046996.8,N
1525516535.2,286046997.3,N
1525516555.1,286046999.5,N
1525516556.0,286046999.5,N
1525516575.8,286046997.8,N
1525516595.7,286046996.1,N
1525516615.5,286046996.0,N
1525516635.3,286046998.0,N
1525516655.2,286046995.5,N
1525516675.0,286046997.8,N
1525516675.9,286046997.8,N
1525516695.8,286046995.5,N
1525516715.6,286046997.9,N
1525516735.4,286046997.2,N
1525516755.3,286046995.2,Y
1525516775.1,286046997.0,P
1525516795.8,286046997.1,P
1525516815.7,286046996.8,P
1525516835.5,286046996.5,Y
1525516855.4,286046999.9,P
1525516875.2,286046999.9,N
1525516895.0,286046999.9,N
1525516895.9,286046999.9,N
1525516915.8,286047000.2,N
1525516935.6,286046999.5,N
1525516955.4,286046997.6,N
1525516975.3,286046995.8,Y
1525516995.1,286046995.6,P
1525517015.9,286046995.2,N
1525517035.7,286046995.3,N
1525517055.5,286046995.0,N
1525517075.4,286046997.4,N
1525517095.2,286046998.4,N
1525517115.0,286046998.1,N
1525517115.9,286046998.1,N
1525517135.8,286046998.3,N
1525517155.6,286047000.7,N
1525517175.5,286047001.0,N
1525517195.3,286046998.6,N
1525517215.1,286046998.1,N
1525517235.9,286047002.8,N
1525517255.7,286047000.0,N
1525517275.6,286046998.3,N
1525517295.4,286046999.5,N
1525517315.2,286046999.5,N
1525517335.1,286046997.2,N
1525517336.0,286046997.2,N
1525517355.8,286046998.9,N
1525517375.6,286046999.4,N
1525517395.5,286046998.6,N
1525517415.3,286046998.7,N
1525517435.2,286046997.8,N
1525517455.9,286046997.7,N
1525517475.7,286046996.2,N
1525517495.6,286046997.6,N
1525517515.4,286046995.6,N
1525517535.2,286046995.6,N
1525517555.1,286046995.0,N
1525517556.0,286046995.0,N
1525517575.8,286046995.0,N
1525517595.7,286046995.0,N
1525517615.5,286046997.9,N
1525517635.3,286046997.2,N
1525517655.2,286046995.1,N
1525517675.9,286046996.6,N
1525517695.7,286047001.6,N
1525517715.6,286047006.3,Y
1525517735.4,286047006.5,P
1525517755.3,286047002.9,N
1525517775.1,286047001.6,N
1525517776.0,286047001.6,N
1525517795.8,286047000.3,N
1525517815.7,286047000.6,N
1525517835.5,286047000.9,N
1525517855.3,286047002.7,N
1525517875.2,286047001.0,N
1525517895.0,286047000.8,N
1525517895.9,286047000.8,N
1525517915.8,286047011.9,Y
1525517935.6,286046996.8,P
1525517955.4,286046996.9,N
1525517975.3,286046996.7,N
1525517995.1,286046996.8,N
